Regional Weather Roundup
Issued by NWS

Home | Current Version | Previous Version | Text Only | Print | Product List | Glossary Off
Versions: 1 2 3 4 5 6 7 8 9 10 11 12 13 14 15 16 17 18 19 20 21 22 23 24 25 26 27 28 29 30 31 32 33 34 35 36 37 38 39 40 41 42 43 44 45 46 47 48 49 50

000
ASUS43 KMKX 220200
RWRWI

WISCONSIN REGIONAL WEATHER ROUNDUP
NATIONAL WEATHER SERVICE MILWAUKEE/SULLIVAN WI
900 PM CDT THU SEP 21 2017

NOTE: "FAIR" INDICATES FEW OR NO CLOUDS BELOW 12,000 FEET WITH NO
SIGNIFICANT WEATHER AND/OR OBSTRUCTIONS TO VISIBILITY.

WIZ001-002-006>008-014>016-023>028-220300-
NORTHWEST WISCONSIN

CITY           SKY/WX    TMP DP  RH WIND       PRES   REMARKS
SUPERIOR ARPT  MOCLDY    60  58  92 NE9G17    29.91S
ASHLAND        PTCLDY    58  56  93 W3        29.93R
HAYWARD        CLEAR     71  66  84 VRB5      29.91S
SIREN          CLEAR     71  66  84 E6        29.86F
CUMBERLAND     CLEAR     70  64  83 E6        29.89S
RICE LAKE      CLEAR     71  67  87 E9        29.89F
CHETEK           N/A     71  68  90 E9        29.89S
LADYSMITH      CLEAR     70  67  89 E7        29.94S
EAU CLAIRE     NOT AVBL
MENOMONIE      CLEAR     73  66  79 E7        29.86F
NEW RICHMOND   NOT AVBL
OSCEOLA        CLEAR     75  65  71 SE13G18   29.86R
$$

WIZ003>005-009-010-017-018-220300-
NORTH CENTRAL WISCONSIN

CITY           SKY/WX    TMP DP  RH WIND       PRES   REMARKS
MANITOWISH WTR PTCLDY    68  68 100 SE3       29.99R
ARBOR VITAE    CLEAR     72  69  90 SE5       30.00R
WOODRUFF       CLEAR     72  69  90 SE5       30.00R
RHINELANDER    CLEAR     66  66 100 SE5       30.01R
EAGLE RIVER    CLEAR     68  66  93 SE3       30.01R
LAND O LAKES   CLEAR     70  65  86 S6        30.02R
PHILLIPS       CLEAR     68  67  97 E5        29.96S
TOMAHAWK       CLEAR     67  65  91 CALM      30.00R
MEDFORD        CLEAR     69  66  90 SE5       29.97S
MERRILL        CLEAR     69  68  98 CALM      29.99R
$$

WIZ029-030-035-036-043>047-220300-
CENTRAL WISCONSIN

CITY           SKY/WX    TMP DP  RH WIND       PRES   REMARKS
WAUSAU         CLEAR     69  66  90 E5        29.97R
MOSINEE        CLEAR     70  66  88 E6        30.00R
MARSHFIELD     CLEAR     70  63  78 E6        29.96R
STEVENS POINT  CLEAR     68  66  94 E6        29.99R
WAUPACA        CLEAR     70  69  96 E3        29.99R
WAUTOMA        CLEAR     73  67  81 E5        29.98R
WISC RAPIDS    CLEAR     73  66  78 SE7       29.98R
CAMP DOUGLAS   NOT AVBL
$$

WIZ011>013-019>022-031-037>040-048>050-220300-
NORTHEAST WISCONSIN

CITY           SKY/WX    TMP DP  RH WIND       PRES   REMARKS
ANTIGO         CLEAR     67  67 100 SE9       30.02S FOG
SHAWANO        CLEAR     72  69  91 E5        30.00R FOG
OCONTO         CLEAR     67  66  96 SE5       30.01R
STURGEON BAY   FOG       65  64  97 SE6       30.03R VSB 3/4
GREEN BAY      CLEAR     69  68  96 E3        30.00R
MANITOWOC      FOG       65  65 100 CALM      30.02S VSB 1/4
APPLETON       NOT AVBL
CLINTONVILLE   CLEAR     70  64  83 E5        30.00R
OSHKOSH        CLEAR     74  67  78 SE8       29.99R
$$

WIZ032>034-041-042-053>061-220300-
SOUTHWEST WISCONSIN

CITY           SKY/WX    TMP DP  RH WIND       PRES   REMARKS
LA CROSSE      NOT AVBL
SPARTA         CLEAR     70  64  80 E3        29.93R
VIROQUA        CLEAR     75  64  70 SE9       29.94R
BOSCOBEL       CLEAR     80  65  59 VRB6      29.93R HX  82
PRAIRIE DU CHI CLEAR     79  63  57 SE7       29.91R HX  80
PLATTEVILLE    CLEAR     75  66  73 SE9       29.96S
$$

WIZ056-057-062-063-064-067-068-220300-
SOUTH CENTRAL WISCONSIN

CITY           SKY/WX    TMP DP  RH WIND       PRES   REMARKS
REEDSBURG      CLEAR     74  67  78 SE3       29.95R
BARABOO/DELLS  CLEAR     74  65  74 SE6       29.97R
LONE ROCK      NOT AVBL
MINERAL POINT  CLEAR     75  64  69 SE6       29.97R
MADISON        CLOUDY    78  66  66 S6        29.97S HX  80
MIDDLETON      CLOUDY    76  66  71 SE5       29.98S
WATERTOWN      PTCLDY    74  70  87 SE7       29.99R
MONROE         CLEAR     77  64  65 S9        29.98S
JANESVILLE     CLEAR     75  64  69 SE6       29.98S
$$

WIZ051-052-058>065-066-070>072-220300-
SOUTHEAST WISCONSIN

CITY           SKY/WX    TMP DP  RH WIND       PRES   REMARKS
MILWAUKEE      PTCLDY    74  69  85 SE6       30.01R
WAUKESHA       CLEAR     73  66  78 SE6       30.03R
MILWAUKEE/TIMM CLEAR     73  64  73 CALM      30.02R
RACINE         CLEAR     74  69  85 SE5       30.03S
BURLINGTON     PTCLDY    75  69  82 CALM      30.01S
KENOSHA        CLEAR     73  67  81 SE3       30.02R
FOND DU LAC    CLOUDY    73  65  75 SE8       30.00R
SHEBOYGAN      CLOUDY    68  68 100 CALM      30.02R
WEST BEND        N/A     68  68 100 CALM      30.03R
JUNEAU         PTCLDY    73  68  84 SE7       30.01S
$$

LSZ147-162-220300-
LAKE SUPERIOR

STATION/POSITION TIME  TEMP    WIND        PRES    WAVE
                       AIR SEA DIR/SP/G            HT/PER
                 (UTC) (F)     (DEG/KT/KT) (MB)    (FT/S)
W MID LAKE BUOY  0050   58 54   80/ 16/ 16 1013.7R   2/ 4
DEVILS ISLAND    0100   60      70/ 13/ 15 1013.0S
SAXON HARBOR     0140   62     190/  4/  5 1012.5R
$$

LMZ867-665-643>646-220300-
LAKE MICHIGAN

STATION/POSITION TIME  TEMP    WIND        PRES    WAVE
                       AIR SEA DIR/SP/G            HT/PER
                 (UTC) (F)     (DEG/KT/KT) (MB)    (FT/S)
S GREEN BAY BUOY 0130   68 68  120/ 10/ 12 1015.8R
N MID LAKE BUOY  0050   68 66  170/  8/  8 1017.0R   1
NORTHPORT PIER   0140   67     160/  6/  9 1016.3R
KEWAUNEE LAKESHO 0130   63        CALM     1015.8S
SHEBOYGAN LAKESH 0100   69     120/  2/  3 1015.9R
PORT WASHINGTON  0130   71      50/  2/  2 1017.3R
ATWATER BUOY     0009   70 67  110/  4/  4 1016.1R
MILWAUKEE LAKESH 0130   70        CALM       N/A
S MID LAKE BUOY  0050   73 70   70/ 10/ 12 1016.0R   0
KENOSHA   LAKESH 0100   73        CALM     1015.9
$$

TC  - TEMPERATURE IN CELSIUS
VSB - VISIBILITY IN STATUTE MILES
WCI - WIND CHILL INDEX
HX  - HEAT INDEX





USA.gov is the U.S. government's official web portal to all federal, state and local government web resources and services.